ONEWEB-0706, 61611

Orbit data source: Space-Track

ONEWEB-0706, 61611 is a payload satellite owned by Eut. One Web (UK) in LEO that was launched on Sun, 20 Oct 2024 UTC via an FALCON 9 launch vehicle from the Air Force Western Test Range (AFWTR). Payload-class satellites include a variety of spacecraft equipped with specific instruments for various scientific and technological missions. These include communications satellites like Starlink; space stations such as the ISS; scientific satellites like the Hubble; Earth observation satellites from companies like Planet Labs, Umbra, and HawkEye 360; GPS; miniature CubeSats for education and research; and military/defense satellites.

Loading next visibility...
Identifier
61611, 2024-188T
Orbit
LEO
Last TLE update
8 hours ago
Origin
Manufacturer
One Web
Mission
Operational Commercial Communications
Bus & Motor
ARROW, Unknown motor
Mass
148 kg wet, ~140 kg dry
Launch date (UTC)
2024-10-20 (7 months ago)
Launch vehicle
FALCON 9
Launch site
Air Force Western Test Range (AFWTR)
Object type
Payload
Rocket body
Debris
Shape & HBR
Trap Box + 2 Pan, 5 m
Radar Cross Section
2.032 m², Large (>1 m²)

Expand to show TLE details & history

TLE from 8 hours ago
0 ONEWEB-0706
1 61611U 24188T   25129.50429422  .00000245  00000-0  66503-3 0  9999
2 61611  87.8802 116.7475 0002249  98.6468 261.4914 13.10368771 28621
Epoch: 2025-05-09T12:06Z
Definitive object data (Epoch: 2025-05-09T12:06:11.02Z)
Latitude
-0.00005°
Longitude
67.64209°
Altitude
1,224.874 km
Speed
7.242 km/s
True Right ascension
07h 46m 59s
True Declination
0° 00' 00"
Sunlit
Object was in daylight at TLE epoch
Visualization TLE readout
Latitude
37.43163°
Longitude
-114.04012°
Altitude
1,225.68 km
Speed
7.246 km/s
Apparent Right ascension
18h 11m 35s
Apparent Declination
3° 03' 09"
Sunlit
Object is in daylight
Visualization observer readout
Local Sidereal Time
04:20:36
Azimuth
322.593° NNW
Elevation
-40.065°
Doppler factor
1
Orbital elements
Apogee altitude
1,220.561 km
Perigee altitude
1,217.144 km
Semi-major axis
7,596.99 km
Eccentricity
0.0002249
Inclination
87.8802°
RAAN
116.7475°
Arg. of periapsis
98.6468°
True anomaly
261.46591°
Mean anomaly
261.4914°
Eccentric anomaly
261.47866°
Mean motion
3.27779 °/min
BSTAR
0.00066503
Orbital period
109.83 mins
Loading maneuver chart data...
Loading SW <> Apogee altitude chart data...
Loading historical data...
Loading historical data...
Loading historical data...
Loading historical data...
Loading historical data...
Loading historical data...
Loading historical data...

ONEWEB-0706 Visibility forecast

Observer location: undefined°, undefined°

Span
Click to sort rows by Start time (UTC) header in descending order
Start Az.
Max El. time (UTC)
Max El. Az.
Max El.
End time (UTC)
End Az.
13 mins2025-05-09 23:11:30.835Z163.29° S2025-05-09 23:18:30.835Z70.755° E41.493°2025-05-09 23:24:30.835Z8.576° NNE
9 mins2025-05-10 01:04:30.835Z243.258° WSW2025-05-10 01:08:30.835Z282.478° WNW21.36°2025-05-10 01:13:30.835Z329.643° NNW
12 mins2025-05-10 10:42:30.835Z13.637° NNE2025-05-10 10:48:30.835Z90.693° ESE37.743°2025-05-10 10:54:30.835Z156.864° SSE
10 mins2025-05-10 12:33:30.835Z328.461° NNW2025-05-10 12:37:30.835Z286.947° WNW25.577°2025-05-10 12:43:30.835Z228.525° WSW
|